Location: Asis
(14.1331°N, 120.9056°E)
Time: 12:12:33
(UTC+00:00)

SPOT 1/Viking Rocket - Pass Details

Date: 15 January 2026
Orbit: 772 x 789 km, 98.2° (Epoch: 17 February)

Event Time Altitude Azimuth Distance (km) Brightness Sun altitude
Rises 10:07:54 0° 159° (SSE) 3,267 6.8 -5.5°
Reaches altitude 10° 10:10:15 10° 155° (SSE) 2,337 6.0 -6.1°
Maximum altitude 10:15:18 58° 77° (ENE) 908 3.6 -7.2°
Drops below altitude 10° 10:20:21 10° 359° (N) 2,329 5.8 -8.4°
Sets 10:22:41 0° 355° (N) 3,254 6.6 -8.9°
